Hourly Data Report for September 20, 2017

All times are specified in Local Standard Time (LST). Add 1 hour to adjust for Daylight Saving Time where and when it is observed.

SUSSEX FOUR CORNERS
NEW BRUNSWICK

45°44'30.048" N
65°31'44.039" W
47.00 m
8105210
71656
ASF

Download Data

Hourly Data (September 2017)
Hourly Data Report for September 20, 2017
Temp Definition
°C
Dew Point Temp Definition
°C
Rel Hum Definition
%
Wind Dir Definition
10's deg

Wind Spd Definition
km/h
Visibility Definition
km
Stn Press Definition
kPa
Hmdx Definition


Wind Chill Definition


Weather Definition


TIME
00:00 19.4 18.4 94 10 1   101.29     LegendNANA
01:00 19.3 18.5 95 6 1   101.27     LegendNANA
02:00 18.3 17.5 95 3 3   101.22     LegendNANA
03:00 18.7 18.2 97 3 2   101.21     LegendNANA
04:00 18.4 17.8 96 35 6   101.18     LegendNANA
05:00 18.5 18.2 98 5 4   101.13     LegendNANA
06:00 18.6 18.3 98 3 5   101.14     LegendNANA
07:00 18.7 18.4 98 2 9   101.14     LegendNANA
08:00 19.4 18.9 97 3 8   101.11     LegendNANA
09:00 20.6 19.1 91 36 8   101.12 27   LegendNANA
10:00 21.4 19.5 89 2 8   101.09 29   LegendNANA
11:00 23.2 20.3 84 2 8   101.03 31   LegendNANA
12:00 23.9 19.6 77 3 7   100.97 31   LegendNANA
13:00 23.8 19.7 78 3 10   100.90 31   LegendNANA
14:00 25.6 19.5 69 3 6   100.86 33   LegendNANA
15:00 25.3 19.7 71 3 11   100.80 33   LegendNANA
16:00 24.7 19.6 73 1 12   100.79 32   LegendNANA
17:00 24.2 19.3 74 2 9   100.80 31   LegendNANA
18:00 23.1 19.4 80 4 5   100.81 30   LegendNANA
19:00 21.2 19.2 89 2 10   100.85 28   LegendNANA
20:00 20.7 18.2 86 3 13   100.89 27   LegendNANA
21:00 19.3 17.4 89 3 13   100.95     LegendNANA
22:00 18.3 17.0 92 3 15   101.01     LegendNANA
23:00 17.7 16.9 96 3 11   101.07     LegendNANA

Notes on Data Quality.

Legend

  • E = Estimated
  • M = Missing
  • NA = Not Available
  • ‡ = Partner data that is not subject to review by the National Climate Archives
Date modified: